Camarillo Airport

Airport
ICAO code: 
KCMA
Summary
ICAO Region: 
EUR
Territory: 
Location: 
Camarillo, California
Serving: 
Oxnard
Elevation: 
77 ft
Coordinates: 
Aerial View: 
34° 12' 43.704" N, 119° 5' 23.748" W
Metar
Observation
KCMA 211055Z AUTO 05004KT 10SM CLR 08/03 A3008 RMK AO2 SLP193 T00830033
Station
Camarillo, Camarillo Airport
Date/Time
2022-01-21 10:55:00
Wind direction
50°
Wind speed
04 kts
Lowest cloud amount
n/a
Temperature
8.3°C
Dew point
3.3°C
Humidity
70%
Weather condition
n/a

Camarillo Airport is a public airport located 3 nm west of the central business district of Camarillo, a city in Ventura County, California, United States.

Climatology

Temperate mediterranean climate (Köppen climate classification Csb)

Runways

Designator Length Width Surface Rops
8/26 1833 46 PEM Yes/Yes
Airport map: 
Aerial View: 

SKYbrary Partners:

Safety knowledge contributed by: